EHI
0 0 0 0 0 0 0 0 0 0 0 0 0 0 1 2 2 2 2 8 15 18 19 26 32 32 30 31 33 34 32 30 27 23 18 14 12 9 7 6 5 5 3 2
0 0 0 0 0 0 0 0 0 1 1 0 0 0 0 1 1 1 1 5 12 16 21 31 38 38 36 38 40 40 38 35 30 24 18 14 12 9 7 6 6 6 3 1
0 0 0 0 0 0 0 0 0 1 1 0 0 0 0 0 0 0 0 3 8 13 21 34 43 45 45 44 45 44 45 42 37 29 22 18 15 11 9 8 7 6 3 1
0 0 0 0 0 0 0 0 0 1 1 0 0 0 0 0 0 0 1 3 6 10 17 30 45 52 51 46 43 44 48 48 43 36 29 24 19 14 12 10 8 5 4 3
0 0 0 0 0 0 0 0 0 0 0 0 0 0 0 0 0 0 1 3 6 8 13 24 41 52 51 45 41 45 51 51 46 39 31 26 21 16 14 12 10 7 7 7
0 0 0 0 0 0 0 0 0 0 0 0 0 0 0 0 0 0 1 4 7 10 13 20 32 45 49 46 45 49 54 53 49 41 32 26 22 19 17 15 12 10 10 12
0 0 0 0 0 0 0 0 0 0 0 0 0 0 0 0 0 1 3 5 8 12 15 20 28 38 47 51 53 56 59 57 52 44 36 28 24 21 20 17 13 10 10 11
0 0 0 0 0 0 0 0 0 0 0 0 0 0 0 0 1 3 5 7 9 13 16 19 23 31 42 52 59 63 64 62 55 49 42 34 25 21 20 18 14 9 7 6
0 0 0 0 0 0 0 0 0 0 0 0 0 0 0 0 1 3 5 8 10 12 15 16 17 21 32 45 55 60 61 59 55 50 44 36 27 22 20 19 15 10 6 5
0 0 0 0 0 0 0 0 0 0 0 0 0 0 0 0 1 2 5 7 9 11 13 14 15 18 25 36 46 50 52 52 49 45 39 31 27 25 21 18 15 11 8 7
0 0 0 0 0 0 0 0 0 0 0 0 0 0 0 0 0 1 4 8 10 11 12 13 16 20 26 33 40 44 45 45 41 37 32 26 23 24 21 18 16 13 10 9
0 0 0 0 0 0 0 0 0 0 0 0 0 0 0 0 0 2 6 12 15 17 16 15 19 24 29 34 39 42 41 38 35 33 30 25 22 22 22 22 20 16 13 12
0 0 0 0 0 0 0 0 0 0 0 0 0 0 0 0 1 4 10 16 21 24 25 24 26 30 34 36 38 40 40 36 32 31 31 28 26 25 25 25 24 21 18 17
0 0 0 0 0 0 0 0 0 0 0 0 0 0 0 1 2 7 14 19 23 28 32 33 34 36 38 39 40 41 43 40 36 36 35 34 32 31 29 27 26 25 24 21
0 0 0 0 0 0 0 0 0 0 0 0 0 0 1 3 5 11 17 20 23 27 32 35 36 36 36 38 41 42 43 42 42 45 45 39 35 34 32 30 29 29 29 26
0 0 0 0 0 0 0 0 0 0 0 0 0 1 3 5 8 14 19 21 22 24 27 32 36 35 32 34 38 41 42 43 45 48 49 43 36 33 33 35 36 36 35 35
0 0 0 0 0 0 0 0 0 0 0 0 0 2 4 6 10 16 22 24 24 23 24 28 32 33 31 30 36 41 44 44 43 43 44 42 36 32 33 37 40 41 40 40
0 0 0 0 0 0 0 0 0 0 0 0 2 3 4 7 11 18 23 26 28 27 25 26 28 31 30 30 34 39 43 43 41 37 36 36 34 32 34 38 41 42 40 39
0 0 0 0 0 0 0 0 0 0 0 2 4 5 6 8 11 17 22 26 29 30 28 26 25 28 29 29 31 35 39 40 37 32 31 33 32 32 34 37 39 38 37 35
0 0 0 0 0 0 0 0 0 0 1 5 7 7 8 9 11 15 20 23 26 28 28 25 24 27 30 30 30 33 37 39 36 31 31 34 33 30 30 33 34 34 32 29
0 0 0 0 0 0 0 0 1 2 5 7 9 9 9 10 13 15 18 21 23 26 26 22 21 26 32 33 32 35 38 40 37 34 33 34 32 27 25 27 30 30 27 25
0 0 0 0 0 1 1 2 4 8 9 9 8 8 10 12 14 14 15 18 19 21 23 22 21 25 32 35 36 39 40 38 36 34 33 32 30 25 22 24 25 24 22 20
1 1 1 1 1 3 4 6 10 12 12 9 6 7 11 13 12 10 13 16 16 16 19 22 22 24 30 35 37 37 35 33 33 32 31 30 28 24 21 22 21 20 19 17
2 3 4 4 4 4 6 9 12 12 10 8 5 6 9 10 9 8 12 15 15 14 16 21 24 25 28 31 32 32 32 31 31 31 30 28 26 23 20 19 17 16 15 15
3 3 4 5 5 5 7 10 11 10 7 5 6 7 7 7 7 8 10 13 13 13 16 21 25 25 26 26 27 29 30 31 31 30 29 26 23 20 17 14 10 9 9 9
2 3 3 3 4 6 8 10 10 8 5 3 6 8 6 5 6 7 9 10 11 12 16 21 25 25 24 25 26 26 28 31 31 30 28 24 20 18 15 10 5 3 3 3
Wind_Speed
10 11 13 14 13 7 7 10 10 7 4 7 9 8 7 7 9 11 11 12 13 13 13 14 14 14 13 13 13 12 12 11 9 7 7 7 7 6 5 5 5 6 5 5
10 14 11 7 8 8 10 11 9 6 5 6 8 9 8 8 11 11 11 12 12 13 13 14 15 15 15 15 14 14 14 13 12 8 7 5 5 5 5 5 5 6 6 6
14 5 8 10 12 12 12 12 9 7 5 7 8 11 11 10 10 10 11 11 12 13 14 15 16 16 16 16 16 14 14 14 13 11 8 6 6 5 6 6 6 7 7 7
10 6 9 13 14 13 12 8 7 7 8 8 8 9 10 10 10 11 12 12 12 12 13 14 16 16 17 16 15 14 14 14 13 12 10 10 8 8 7 6 6 7 7 8
10 10 12 13 13 13 7 6 8 9 10 9 10 11 7 9 11 12 11 11 11 11 12 13 15 16 16 15 14 14 14 14 13 13 12 11 10 7 5 6 6 7 7 8
6 7 10 10 9 10 7 8 7 8 10 12 12 11 8 8 10 9 8 7 7 8 10 12 13 13 14 14 14 14 14 14 14 14 13 13 11 9 7 7 6 7 6 7
10 11 9 8 11 12 13 12 9 10 10 10 8 10 7 3 4 5 5 5 5 6 8 10 12 13 14 15 15 14 15 14 14 14 14 13 12 11 11 9 8 8 7 7
12 13 13 12 13 12 16 16 9 8 9 8 8 10 5 3 3 4 4 4 4 6 7 8 10 12 13 15 15 15 15 14 14 14 13 12 12 10 9 10 8 8 7 7
9 8 11 11 11 11 15 15 11 8 6 7 8 6 5 5 6 6 5 4 3 4 5 7 9 10 12 13 14 15 15 14 14 14 13 12 12 11 10 9 9 8 8 7
5 7 10 10 10 10 10 12 8 9 8 10 8 9 6 8 7 6 5 3 2 3 4 5 7 8 9 11 12 13 13 13 13 13 12 10 11 11 10 9 10 9 9 8
7 7 10 12 13 14 12 13 11 10 9 8 7 5 3 4 3 3 3 1 1 2 3 5 5 7 8 9 11 11 12 12 11 12 11 11 10 11 11 10 10 9 9 8
9 8 8 10 7 7 13 13 13 10 9 9 7 3 6 3 2 1 1 2 2 2 2 4 5 7 8 9 9 10 10 10 10 10 10 10 10 10 10 10 9 9 8 8
8 7 9 11 10 10 12 12 13 12 9 10 10 5 7 4 2 1 1 2 2 3 2 4 5 5 7 8 8 9 9 9 8 8 9 9 9 9 9 9 8 8 8 8
6 8 10 9 6 11 13 13 13 13 11 11 12 7 5 3 1 0 1 1 2 3 3 4 5 5 5 6 7 7 8 7 7 7 8 8 8 8 8 7 7 7 7 7
7 9 9 7 4 7 10 13 14 15 14 12 10 10 6 3 2 1 0 1 2 3 3 4 4 5 5 6 6 6 7 7 6 6 6 6 6 6 7 7 7 7 7 7
6 7 8 9 8 9 11 12 14 15 15 14 12 9 2 2 2 2 2 2 2 2 3 3 4 5 5 5 6 6 6 6 6 6 6 5 5 6 6 6 6 6 6 6
8 7 9 10 10 11 13 13 14 14 13 13 13 8 4 4 4 3 2 2 1 1 2 2 3 3 4 4 4 5 6 6 6 5 5 5 5 6 6 6 6 6 6 5
7 8 7 8 9 14 5 4 9 11 10 9 8 5 5 4 3 2 1 1 1 1 1 1 2 3 3 3 4 5 6 6 6 6 5 4 4 4 5 5 5 5 4 4
7 9 8 8 11 9 6 6 7 9 8 6 7 5 4 4 4 3 1 1 1 1 1 1 1 2 3 3 4 5 6 6 6 5 5 4 4 4 4 5 4 4 4 4
7 9 9 9 11 9 5 4 4 8 8 5 5 5 5 6 7 3 2 2 3 3 2 2 2 2 3 3 4 5 6 5 5 5 4 5 4 4 4 4 4 4 4 4
11 10 12 12 11 5 3 2 6 10 3 3 3 4 5 4 1 3 3 3 3 3 3 2 2 2 2 3 4 5 5 5 4 5 5 5 5 5 5 4 4 4 5 5
9 9 11 11 12 6 3 4 4 2 4 1 1 2 2 1 3 3 3 3 2 2 3 3 3 3 3 3 4 5 4 4 5 5 6 6 5 5 5 5 5 5 5 6
6 4 4 4 1 4 2 1 2 2 2 1 0 1 2 3 3 3 3 2 2 2 3 3 3 4 4 3 4 5 4 4 6 6 6 6 6 5 5 5 5 5 4 4
4 3 4 4 2 1 1 1 1 1 2 2 1 1 3 4 3 3 2 2 2 2 3 3 3 4 3 3 4 4 4 5 6 7 7 7 7 6 6 4 3 3 3 3
3 4 5 5 3 3 2 1 2 2 2 1 1 1 3 4 4 3 2 2 2 2 2 2 3 4 3 3 4 4 4 5 7 8 7 7 7 7 7 7 6 5 6 4
5 6 6 4 2 2 1 1 2 2 1 1 0 1 2 3 4 3 3 2 2 3 2 3 3 4 4 4 4 4 4 5 7 7 7 6 6 7 7 8 8 14 11 14
Wind_Direction
185 206 207 205 218 249 224 218 208 186 157 221 222 225 209 200 209 210 205 200 200 203 195 189 191 192 189 190 190 190 194 189 189 191 195 195 196 200 201 200 194 207 212 202
188 217 213 205 205 218 213 215 205 174 181 236 229 233 223 216 219 220 217 211 207 202 195 190 192 193 194 192 194 193 194 191 193 193 198 201 202 203 202 208 196 213 214 215
208 186 183 192 197 208 214 219 211 197 190 222 238 233 221 215 221 224 224 221 215 208 201 194 195 196 197 197 197 197 196 193 196 192 194 195 194 208 198 204 202 212 215 218
217 170 188 200 203 208 212 214 218 210 220 213 225 242 206 207 213 218 219 218 216 211 208 200 197 198 201 200 196 197 195 194 193 193 202 202 204 207 206 206 202 205 212 220
196 191 195 204 203 210 216 190 211 221 232 240 216 250 218 192 220 219 213 216 217 212 210 207 203 200 201 199 195 193 193 195 195 199 202 205 215 217 212 211 208 214 211 220
187 190 209 211 198 203 181 178 193 222 232 232 225 239 236 203 219 217 201 203 211 211 211 209 205 198 198 196 195 193 192 196 197 200 203 206 214 218 218 217 214 217 213 213
190 194 196 202 185 187 195 192 193 201 213 226 199 231 242 223 222 235 225 217 212 208 205 203 200 196 195 196 195 195 193 197 199 201 204 204 210 213 217 219 217 224 222 213
191 191 190 197 203 186 203 212 224 218 213 198 182 230 232 200 219 227 232 229 217 207 198 200 200 198 195 194 194 194 195 197 198 201 204 207 209 215 218 217 224 222 230 230
198 184 174 195 208 207 199 220 237 254 242 235 196 208 222 209 213 213 211 211 207 201 196 198 198 197 194 192 192 194 194 196 198 200 202 207 211 218 221 217 220 226 226 230
208 183 173 184 197 215 227 210 213 231 225 226 212 214 214 186 199 193 191 191 185 186 188 187 188 188 190 189 189 191 192 194 197 200 203 205 210 214 218 223 222 229 229 230
215 203 170 183 203 193 199 206 216 223 243 244 218 196 153 178 170 171 157 133 154 184 175 171 174 176 180 182 182 184 188 191 195 201 204 209 210 212 215 218 222 224 229 226
211 223 193 190 193 223 210 211 211 217 214 244 260 153 108 133 145 153 106 81 79 118 147 157 161 167 172 174 176 179 185 190 194 198 202 208 211 212 215 216 219 222 225 226
188 214 198 188 189 201 214 215 220 230 229 229 236 188 126 144 172 157 109 84 84 98 114 137 146 157 168 169 171 175 181 185 189 194 199 203 205 207 212 214 213 218 221 223
220 221 236 222 192 186 200 207 213 222 228 227 234 227 185 198 221 158 78 89 99 108 113 128 141 151 163 168 171 174 175 176 179 187 197 200 201 202 206 208 208 211 214 216
224 223 232 253 227 205 208 211 211 221 234 241 233 233 228 238 259 274 228 155 124 113 117 127 142 149 157 161 167 171 168 168 173 180 188 193 196 194 196 201 205 205 209 211
222 235 221 225 221 219 222 220 220 223 231 240 245 240 210 233 235 227 213 195 172 127 116 119 125 142 153 163 167 166 165 166 169 174 178 182 188 188 190 195 198 200 205 209
202 220 223 219 206 217 224 221 220 222 227 235 238 236 212 213 216 226 222 208 184 115 93 104 116 139 153 161 163 161 157 156 159 163 166 175 184 187 189 191 192 197 200 201
215 223 230 222 205 223 213 205 224 226 224 234 240 230 221 215 206 212 216 181 147 102 72 99 118 133 144 142 151 153 150 151 155 159 167 172 176 178 179 186 191 192 192 188
219 222 232 225 218 220 200 202 213 216 217 226 227 214 205 193 188 183 151 180 123 80 53 83 115 131 137 146 151 151 148 148 152 160 165 162 166 170 170 176 181 182 169 163
195 221 233 227 227 223 188 159 215 227 216 204 214 205 205 209 219 178 132 103 80 61 55 75 95 111 131 143 149 154 151 152 154 159 158 155 159 158 160 160 158 153 151 152
188 202 221 227 230 223 110 156 199 218 188 144 199 206 211 224 315 90 102 87 78 69 68 82 91 96 109 132 142 145 139 140 143 142 143 143 145 145 143 138 137 141 139 132
208 204 210 222 228 208 104 196 211 28 29 85 177 208 205 138 111 117 104 93 85 72 75 89 96 93 96 121 135 132 126 130 133 135 134 131 132 132 129 124 122 125 129 130
231 256 236 237 238 65 53 43 34 346 329 351 254 217 157 147 130 118 102 92 81 67 73 87 106 102 97 107 120 123 125 136 136 132 128 126 120 114 114 119 123 128 133 133
193 247 240 228 189 140 93 65 16 333 320 310 276 190 163 149 141 131 114 91 74 64 86 97 111 107 100 101 104 110 125 136 136 131 127 123 118 109 97 92 95 99 103 121
228 218 219 220 210 206 172 14 352 344 331 338 22 142 161 154 149 141 125 95 69 66 82 88 99 105 100 96 96 97 117 135 134 129 127 125 118 110 97 78 54 63 54 39
234 240 240 231 208 247 230 335 329 320 342 13 124 135 151 156 146 139 125 108 87 85 84 84 87 91 95 97 102 107 117 129 133 131 134 132 127 121 117 109 86 58 62 58